Regional Weather Roundup
Issued by NWS Mt. Holly, NJ

Home | Current Version | Previous Version | Text Only | Print | Product List | Glossary On
Versions: 1 2 3 4 5 6 7 8 9 10 11 12 13 14 15 16 17 18 19 20 21 22 23 24 25 26 27 28 29 30 31 32 33 34 35 36 37 38 39 40 41 42 43 44 45 46 47 48 49 50
000
ASUS41 KPHI 271411
RWRPHI

REGIONAL WEATHER ROUNDUP
NATIONAL WEATHER SERVICE MOUNT HOLLY NJ
1000 AM EDT WED MAY 27 2015

NOTE:  "FAIR" INDICATES FEW OR NO CLOUDS BELOW 12,000 FEET WITH NO
SIGNIFICANT WEATHER AND/OR OBSTRUCTIONS TO VISIBILITY.

 * = STATION DOES NOT REPORT PRECIPITATION (E.G. RAIN, SNOW, ETC.)
        OR FOG.

NJZ015>026-271500-
SOUTHERN NEW JERSEY

CITY           SKY/WX    TMP DP  RH WIND       PRES   REMARKS
POMONA         PTSUNNY   79  67  66 SW10G17   30.20S
RIO GRANDE*    SUNNY     77  64  65 S12       30.22F
MILLVILLE      CLOUDY    76  68  76 S10       30.20F
WRIGHTSTOWN    CLOUDY    77  69  78 SW15      30.16S
MOUNT HOLLY    CLOUDY    76  68  76 VRB6      30.19R
TRENTON        CLOUDY    76  68  76 SW10      30.17S

$$
NJZ001>014-271500-
NORTHERN NEW JERSEY

CITY           SKY/WX    TMP DP  RH WIND       PRES   REMARKS
SUSSEX         CLOUDY    74  66  76 VRB5      30.17S
ANDOVER*         N/A     74  67  78 SW6       30.17S
MORRISTOWN     CLOUDY    73  68  83 SW7       30.18S
NEWARK         PTSUNNY   79  68  69 SW10      30.17S
TETERBORO      CLOUDY    75  67  76 SW12      30.16S
CALDWELL       CLOUDY    73  66  78 CALM      30.17S
SOMERVILLE     CLOUDY    75  68  78 S6        30.15F
ALLAIRE*       PTSUNNY   77  64  65 SW9       30.19S
TOMS RIVER*    CLOUDY   N/A N/A N/A SW12      30.19S

$$
PAZ043-044-047-054-055-060>062-066>071-271500-
EASTERN PENNSYLVANIA

CITY           SKY/WX    TMP DP  RH WIND       PRES   REMARKS
PHILADELPHIA   CLOUDY    77  68  73 SW14      30.18S
NORTH PHILA    CLOUDY    77  66  68 SW12      30.19S
BLUE BELL      CLOUDY    77  70  78 SW8       30.18S
DOYLESTOWN     CLOUDY    73  68  84 VRB6      30.17S
QUAKERTOWN*    CLOUDY    75  70  83 S8        30.18S
POTTSTOWN      CLOUDY    76  70  82 SW9       30.19S
LANCASTER      CLOUDY    76  68  76 SW10      30.16S
COATESVILLE    CLOUDY    75  72  88 SW6       30.19F
READING        CLOUDY    77  67  71 S12       30.16R
ALLENTOWN      CLOUDY    77  68  73 S9        30.16S
MOUNT POCONO   PTSUNNY   74  64  71 VRB6      30.19S
HAZLETON       MOSUNNY   75  64  69 S8        30.21S
WILKES BARRE   MOSUNNY   80  65  59 SW7       30.13F

$$
DEZALL-MDZ008-012-015-019-020-271500-
DELAWARE AND EASTERN MARYLAND

CITY           SKY/WX    TMP DP  RH WIND       PRES   REMARKS
WILMINGTON     CLOUDY    76  69  79 S14       30.18F
DOVER          MOSUNNY   79  72  80 SW13G22   30.16F
GEORGETOWN     CLOUDY    77  69  76 S14       30.22S
EASTON         PTSUNNY   79  72  78 SW10      30.23F
ABERDEEN       PTSUNNY   79  72  78 SW14      30.15S
PATUXENT       PTSUNNY   79  68  69 S7        30.19S
OCEAN CITY     CLOUDY    72  65  78 SW14G21   30.24S
WALLOPS ISLAND PTSUNNY   73  67  81 S17       30.24F
CAMBRIDGE      CLOUDY    77  68  73 S12       30.20S
SALISBURY      CLOUDY    76  68  76 SW16      30.22F

$$
PAZ001-021-NYZ056-072-MDZ011-DCZ001-271500-
OTHER NEARBY LOCATIONS

CITY           SKY/WX    TMP DP  RH WIND       PRES   REMARKS
HARRISBURG     PTSUNNY   80  69  69 S10G18    30.13F
STATE COLLEGE  CLOUDY    73  63  68 W8        30.15S
WILLIAMSPORT   CLOUDY    79  67  66 S10G17    30.10F
BINGHAMTON     CLOUDY    73  65  75 SW14      30.13R
NEW YORK CITY  CLOUDY    76  66  71 VRB6      30.20S
BALTIMORE      CLOUDY    76  68  76 SW10      30.16F
WASHINGTON DC  CLOUDY    78  70  76 S10       30.17F

$$



USA.gov is the U.S. government's official web portal to all federal, state and local government web resources and services.